Regional Weather Roundup
Issued by NWS

Home | Current Version | Previous Version | Text Only | Print | Product List | Glossary On
Versions: 1 2 3 4 5 6 7 8 9 10 11 12 13 14 15 16 17 18 19 20 21 22 23 24 25 26 27 28 29 30 31 32 33 34 35 36 37 38 39 40 41 42 43 44 45 46 47 48 49 50
000
ASUS43 KMKX 020959
RWRWI

WISCONSIN REGIONAL WEATHER ROUNDUP
NATIONAL WEATHER SERVICE MILWAUKEE/SULLIVAN WI
400 AM CST MON MAR 02 2015

NOTE: "FAIR" INDICATES FEW OR NO CLOUDS BELOW 12,000 FEET WITH NO
SIGNIFICANT WEATHER AND/OR OBSTRUCTIONS TO VISIBILITY.

WIZ001-002-006>008-014>016-023>028-021100-
NORTHWEST WISCONSIN

CITY           SKY/WX    TMP DP  RH WIND       PRES   REMARKS
SUPERIOR ARPT  CLEAR     10   5  78 SW8       30.40S WCI  -2
ASHLAND        CLEAR      9   4  80 SW6       30.38R WCI  -1
HAYWARD        FAIR      -1  -7  75 CALM      30.36R
SIREN          CLEAR      6   3  86 CALM      30.41S
CUMBERLAND     CLEAR      5   1  85 W6        30.37S WCI  -6
RICE LAKE      CLEAR      6   1  79 CALM      30.40F
CHETEK         CLEAR      7   4  86 W3        30.38F
LADYSMITH      CLEAR     11   6  77 W6        30.37S WCI   2
EAU CLAIRE     NOT AVBL
MENOMONIE      CLEAR     14   7  72 W7        30.41S WCI   4
NEW RICHMOND   CLEAR      7   2  82 W5        30.42S WCI  -2
OSCEOLA        CLEAR     10   4  79 CALM      30.45S
$$

WIZ003>005-009-010-017-018-021100-
NORTH CENTRAL WISCONSIN

CITY           SKY/WX    TMP DP  RH WIND       PRES   REMARKS
MANITOWISH WTR CLOUDY    13   4  68 NW9G17    30.26R WCI   1
ARBOR VITAE    CLOUDY    17   7  65 NW12      30.26R WCI   4
WOODRUFF       CLOUDY    17   7  65 NW12      30.26R WCI   4
RHINELANDER    CLOUDY    13   2  61 NW9G18    30.27R WCI   1
EAGLE RIVER    PTCLDY    12   5  73 W7        30.24R WCI   1
LAND O LAKES   LGT SNOW  14  10  83 NW5       30.23R WCI   6
PHILLIPS       CLEAR     10   4  75 W3        30.30R
TOMAHAWK       PTCLDY    13   4  65 NW9       30.29R WCI   1
MEDFORD        CLEAR     10   5  79 W6        30.31R WCI   0
MERRILL        FLURRIES  12   6  79 W7        30.30R WCI   1
$$

WIZ029-030-035-036-043>047-021100-
CENTRAL WISCONSIN

CITY           SKY/WX    TMP DP  RH WIND       PRES   REMARKS
WAUSAU         PTCLDY    10   5  80 W10       30.31R WCI  -4
MOSINEE        CLEAR     12   9  85 W12       30.33R WCI  -2
MARSHFIELD     CLEAR     12   5  73 NW15      30.33S WCI  -4
STEVENS POINT  CLEAR     13   6  73 W5        30.34R WCI   5
WAUPACA        CLEAR     16   8  70 W7        30.36R WCI   7
WAUTOMA        NOT AVBL
WISC RAPIDS    FAIR      11   5  77 NW5       30.38R WCI   3
CAMP DOUGLAS   NOT AVBL
$$

WIZ011>013-019>022-031-037>040-048>050-021100-
NORTHEAST WISCONSIN

CITY           SKY/WX    TMP DP  RH WIND       PRES   REMARKS
ANTIGO         FLURRIES  10   6  84 W7        30.27R WCI  -1
SHAWANO        CLEAR     17   8  68 SW5       30.33R WCI   9
OCONTO         CLEAR     12   5  73 W7        30.31R WCI   1
STURGEON BAY   CLEAR     16   5  62 W10       30.32R WCI   3
GREEN BAY      CLEAR     14   7  73 W10       30.34R WCI   1
MANITOWOC      NOT AVBL
APPLETON       CLEAR     10   5  79 W8        30.34R WCI  -1
CLINTONVILLE   CLEAR     14   7  73 W8        30.33R WCI   3
OSHKOSH        CLEAR     14   7  73 W6        30.36R WCI   5
$$

WIZ032>034-041-042-053>061-021100-
SOUTHWEST WISCONSIN

CITY           SKY/WX    TMP DP  RH WIND       PRES   REMARKS
LA CROSSE      MOCLDY    17  10  74 W6        30.43R WCI   9
SPARTA         CLEAR     13   9  83 W5        30.41R WCI   5
VIROQUA        CLOUDY    15  12  87 W6        30.37S WCI   6
BOSCOBEL       PTCLDY     5   0  79 CALM      30.43S
PRAIRIE DU CHI PTCLDY     8   4  83 CALM      30.44S
PLATTEVILLE    MOCLDY     9   7  89 SW6       30.42R WCI  -1
$$

WIZ056-057-062-063-064-067-068-021100-
SOUTH CENTRAL WISCONSIN

CITY           SKY/WX    TMP DP  RH WIND       PRES   REMARKS
REEDSBURG      CLEAR     13   9  83 NW3       30.39S
BARABOO/DELLS  CLEAR     14   9  80 W3        30.38R
LONE ROCK      NOT AVBL
MINERAL POINT  PTCLDY    12   9  85 W6        30.39R WCI   3
MADISON        CLEAR      9   5  84 W3        30.40R
MIDDLETON      CLEAR     11   6  82 CALM      30.39S
WATERTOWN      CLEAR     10   5  82 CALM      30.38R
MONROE         PTCLDY    14  10  85 W12       30.39R WCI   0
JANESVILLE     CLEAR     14   9  79 W3        30.41R
$$

WIZ051-052-058>065-066-070>072-021100-
SOUTHEAST WISCONSIN

CITY           SKY/WX    TMP DP  RH WIND       PRES   REMARKS
MILWAUKEE      CLEAR     17   6  62 W7        30.39R WCI   8
WAUKESHA       CLEAR     14   7  73 W10       30.38R WCI   1
MILWAUKEE/TIMM CLEAR     14   7  73 W6        30.39R WCI   5
RACINE         CLEAR     14   6  70 W7        30.41R WCI   4
BURLINGTON     CLEAR     10   4  79 W6        30.39R WCI   0
KENOSHA        CLEAR     14   6  70 SW7       30.40R WCI   4
FOND DU LAC    CLEAR     15   6  67 W9        30.37R WCI   3
SHEBOYGAN      FAIR      15   7  70 W8        30.36R WCI   4
WEST BEND      CLEAR     18   9  68 W8        30.36R WCI   7
JUNEAU         CLEAR     12   7  79 W3        30.38R
$$

LSZ147-162-021100-
LAKE SUPERIOR

STATION/POSITION TIME  TEMP    WIND        PRES    WAVE
                       AIR SEA DIR/SP/G            HT/PER
                 (UTC) (F)     (DEG/KT/KT) (MB)    (FT/S)
DEVILS ISLAND    0900   18     270/ 13/ 15 1028.8R
PORT WING        0900   18     280/ 15/ 19 1028.4
SAXON HARBOR     0900   16     270/  1/  7 1027.4S
$$

LMZ867-665-643>646-021100-
LAKE MICHIGAN

STATION/POSITION TIME  TEMP    WIND        PRES    WAVE
                       AIR SEA DIR/SP/G            HT/PER
                 (UTC) (F)     (DEG/KT/KT) (MB)    (FT/S)
NORTHPORT PIER   0904   17     280/  7/ 14 1024.7R
SISTER BAY       0913   13     270/  9/ 10   N/A
KEWAUNEE LAKESHO 0900   17     300/  6/ 11 1025.4R
SHEBOYGAN LAKESH 0900   19     270/ 10/ 12 1028.8R
PORT WASHINGTON  0900   18     280/  4/  7 1028.8
MILWAUKEE LAKESH 0900   20     280/  7/ 11   N/A
KENOSHA   LAKESH 0900   17     270/  8/ 12 1028.8R
$$

TC  - TEMPERATURE IN CELSIUS
VSB - VISIBILITY IN STATUTE MILES
WCI - WIND CHILL INDEX
HX  - HEAT INDEX



USA.gov is the U.S. government's official web portal to all federal, state and local government web resources and services.